Regional Weather Roundup
Issued by NWS

Home | Current Version | Previous Version | Text Only | Print | Product List | Glossary On
Versions: 1 2 3 4 5 6 7 8 9 10 11 12 13 14 15 16 17 18 19 20 21 22 23 24 25 26 27 28 29 30 31 32 33 34 35 36 37 38 39 40 41 42 43 44 45 46 47 48 49 50
000
ASUS43 KBIS 280810
RWRND

NORTH DAKOTA REGIONAL WEATHER ROUNDUP
NATIONAL WEATHER SERVICE BISMARCK ND
300 AM CDT FRI JUL 28 2017

NOTE: "FAIR" INDICATES FEW OR NO CLOUDS BELOW 12,000 FEET WITH NO
SIGNIFICANT WEATHER AND/OR OBSTRUCTIONS TO VISIBILITY.


NDZ001>003-009>011-017-280900-
NORTHWEST NORTH DAKOTA

CITY           SKY/WX    TMP DP  RH WIND       PRES   REMARKS
WILLISTON      CLEAR     62  60  93 CALM      30.00F
MINOT          MOCLDY    68  59  73 SE6       30.03S
MINOT AFB      PTCLDY    65  60  82 SE6       30.02R
$$

NDZ018>021-031>035-040>046-280900-
SOUTHWEST NORTH DAKOTA

CITY           SKY/WX    TMP DP  RH WIND       PRES   REMARKS
BISMARCK       CLOUDY    68  59  73 E5        30.06R
DICKINSON      CLOUDY    64  59  83 SE8       30.02F
GARRISON         N/A     64  62  93 SE6       30.04S
HETTINGER ARPT PTCLDY    60  54  80 SE5       30.05F
$$

NDZ004>008-012>016-024-026-027-054-280900-
NORTHEAST NORTH DAKOTA

CITY           SKY/WX    TMP DP  RH WIND       PRES   REMARKS
GRAND FORKS    CLEAR     61  60  97 VRB3      30.06R
GRND FRKS AFB  PTCLDY    57  55  94 CALM      30.06S
DEVILS LAKE    MOCLDY    66  60  81 SE6       30.08S
$$

NDZ022-023-025-028>030-036>039-047>053-280900-
SOUTHEAST NORTH DAKOTA

CITY           SKY/WX    TMP DP  RH WIND       PRES   REMARKS
FARGO          CLEAR     60  58  92 CALM      30.07R
JAMESTOWN      PTCLDY    60  57  89 SE5       30.07S
$$




USA.gov is the U.S. government's official web portal to all federal, state and local government web resources and services.